GFSNGP_sfc_rhum_156.txt.gz
RH
82 70 49 42 43 44 65 43 56 38 35 35 59 70 70 71 74 71 72 71 75 92 92 94 92 91 87 85 82 83 83 78 78 80 75 76 83 82 82 82 82 82 84 84
93 71 57 69 77 63 56 49 45 44 46 36 47 63 74 71 68 70 70 67 76 78 86 91 89 85 82 84 84 84 85 78 75 74 76 78 83 81 83 82 81 84 86 87
85 72 85 99 86 79 81 68 58 70 53 70 79 72 76 74 68 68 67 68 78 80 82 82 85 81 87 85 83 85 82 80 74 76 83 79 82 80 81 82 80 85 87 88
92 96 97 71 53 59 62 62 60 58 70 73 73 79 77 68 70 65 62 69 74 74 73 78 85 87 81 81 84 78 80 78 77 79 78 77 81 84 81 79 83 85 86 88
92 94 88 74 54 65 72 65 58 64 81 85 76 71 80 66 62 65 68 73 72 74 76 80 79 83 78 83 75 76 78 77 81 81 79 86 86 85 80 80 82 82 81 91
98 96 95 64 47 46 53 74 65 72 88 82 69 87 90 64 62 66 67 69 74 74 74 79 82 83 83 89 78 79 80 82 86 79 79 84 83 82 76 84 78 79 82 85
86 93 82 63 52 49 61 67 84 85 83 81 95 93 76 67 67 65 65 70 71 73 79 81 80 84 89 83 81 77 79 85 83 76 78 76 82 76 80 83 79 84 83 81
92 95 89 57 55 56 66 90 88 85 86 88 82 78 75 70 70 71 75 72 71 77 80 81 84 88 94 80 76 71 81 81 80 74 73 78 81 80 76 81 77 84 85 85
86 83 74 75 73 80 75 85 87 84 77 77 76 74 73 76 76 75 78 75 74 83 83 83 86 86 82 80 76 82 83 82 73 73 71 88 89 85 80 84 87 89 87 88
83 83 89 83 79 77 75 80 76 70 69 70 79 78 81 76 72 81 82 82 82 86 93 86 86 81 84 82 78 79 81 79 80 76 81 86 92 87 90 91 90 90 90 91
93 93 84 81 78 75 76 74 72 69 69 76 78 81 77 74 80 84 80 84 84 85 84 88 86 87 88 84 79 79 79 80 80 80 87 87 89 96 95 95 95 96 95 95
91 84 83 83 81 81 90 89 74 75 79 75 76 75 73 83 83 84 83 80 82 82 84 89 88 88 88 89 83 87 80 80 88 82 83 86 88 89 84 91 82 87 87 94
92 77 82 85 84 82 94 81 78 82 80 79 73 73 75 83 84 84 87 85 88 93 90 89 89 89 90 91 92 90 92 84 85 84 84 87 90 91 93 80 74 83 85 81
83 90 98 95 98 79 80 82 81 78 75 73 75 77 82 88 87 98 100 100 100 99 98 98 97 96 96 95 96 96 96 93 96 94 95 92 92 93 91 92 92 89 78 84
80 79 90 96 87 82 78 81 85 83 77 79 75 79 80 83 86 91 98 99 99 99 99 99 98 96 96 97 98 98 96 96 95 95 94 94 93 91 89 89 90 89 83 79
83 82 81 81 77 74 76 81 85 82 81 82 78 79 81 77 75 80 79 84 96 100 98 100 99 96 88 96 98 97 97 94 91 91 91 91 91 91 90 89 89 89 89 92
92 96 93 81 77 74 75 77 82 82 81 77 81 80 82 87 89 91 99 100 100 100 99 100 99 98 95 86 97 98 98 93 93 89 91 91 92 93 92 91 92 90 92 90
68 70 67 71 74 79 82 78 78 77 81 80 84 91 94 96 100 100 100 100 98 97 99 99 99 96 95 93 91 94 95 91 87 92 90 94 94 92 94 93 90 91 91 87
69 71 71 69 73 78 80 84 89 92 93 93 90 91 94 98 97 100 100 98 100 98 98 97 93 93 92 93 93 94 96 96 94 90 91 96 95 93 96 95 94 94 93 93
75 73 76 80 79 84 95 94 93 95 95 92 92 95 100 100 100 100 100 100 100 98 95 92 92 94 93 92 98 94 96 96 94 96 97 97 98 100 98 98 96 96 97 96
86 85 91 92 95 93 91 90 92 94 96 92 89 95 97 100 100 100 96 99 98 95 90 94 94 97 93 95 96 98 98 99 99 100 100 100 100 100 100 100 99 99 99 98
92 93 95 93 93 97 94 90 91 94 96 98 97 96 99 100 100 100 99 97 98 98 98 97 96 99 95 99 94 99 97 98 100 100 100 100 100 100 100 100 100 99 100 100
93 93 94 93 92 97 94 93 94 92 96 96 95 98 97 96 96 95 99 97 98 99 97 99 100 100 100 100 100 100 100 100 100 100 100 100 100 100 100 100 100 100 100 99
94 95 98 96 94 92 94 100 96 97 94 96 95 94 93 99 100 99 98 100 100 100 100 100 100 100 100 100 100 100 100 100 100 100 100 100 100 100 100 100 100 100 100 100
93 94 94 94 93 94 94 97 99 100 99 98 98 96 95 97 95 98 98 99 100 98 99 100 100 100 100 100 100 100 100 100 100 100 100 100 100 100 100 100 100 100 100 100
93 93 92 91 91 92 93 94 97 99 98 100 100 100 100 99 99 97 100 100 100 100 99 100 100 100 100 100 100 100 100 100 100 100 100 100 100 100 100 100 100 100 100 100
96 94 95 96 93 92 94 96 96 99 98 97 99 100 100 100 100 99 100 100 100 100 100 100 100 100 100 100 100 100 100 100 100 100 100 100 100 100 100 100 100 100 100 100

GFSNGP_sfc_rhum_162.txt.gz
RH
38 32 30 31 33 32 59 47 66 47 34 28 26 30 36 40 43 43 46 50 54 86 100 100 99 80 59 57 54 54 54 57 62 61 61 63 68 66 63 66 62 62 64 66
48 32 26 32 27 28 31 34 27 29 35 21 21 28 34 37 42 45 48 48 52 59 72 93 77 64 56 59 59 56 58 60 57 59 60 67 66 62 62 61 59 62 67 66
67 37 44 81 52 41 60 37 36 53 38 29 30 36 38 40 42 46 47 50 53 62 73 68 63 55 56 54 55 55 62 57 58 63 68 67 59 56 61 64 62 67 68 66
62 49 86 36 19 28 33 39 40 40 41 38 36 48 51 40 44 46 47 51 64 69 76 55 50 50 52 51 55 57 57 54 62 70 67 64 59 56 61 63 67 67 65 65
73 50 36 28 23 27 41 42 26 39 39 35 50 50 54 44 43 46 49 63 74 65 48 44 45 46 45 47 49 52 56 58 62 66 67 66 67 60 59 59 63 65 60 65
59 63 60 30 24 29 32 58 28 31 37 46 53 56 55 48 49 57 58 48 45 44 42 44 47 45 45 46 49 55 57 60 58 64 61 60 64 59 56 55 56 56 63 68
66 66 42 23 18 23 51 42 44 46 45 53 74 67 56 51 49 45 48 46 41 40 43 45 46 45 45 45 51 53 52 52 55 56 58 59 59 56 52 57 64 66 67 66
64 70 64 20 25 42 41 52 52 55 54 67 65 61 56 48 48 46 44 42 40 42 44 45 44 45 43 46 44 47 46 47 49 55 54 54 61 56 52 54 60 67 70 78
59 68 42 48 49 54 55 55 59 60 59 60 61 56 50 50 50 44 41 40 39 41 48 49 46 45 47 49 42 44 44 44 45 49 50 55 64 70 63 63 72 80 75 79
45 36 36 50 54 58 61 70 56 56 53 53 57 54 53 47 43 42 41 42 41 44 47 52 49 49 46 46 42 37 40 42 42 48 50 53 58 61 70 76 78 80 84 87
46 39 59 58 64 76 65 57 53 51 49 52 54 55 50 47 44 43 46 45 44 48 50 51 49 48 45 43 43 40 41 43 47 47 49 51 63 72 71 79 81 87 90 89
77 48 56 53 71 66 61 59 53 52 54 50 50 53 50 52 48 47 48 46 48 49 49 50 49 50 48 46 46 49 44 47 56 51 54 52 56 68 62 65 65 67 69 80
57 47 52 58 58 53 61 56 54 56 54 53 52 51 52 52 56 58 52 52 58 64 59 57 58 62 59 56 55 61 62 57 57 59 60 64 66 69 76 69 59 63 65 70
61 68 84 75 95 68 59 60 59 51 51 53 54 51 55 65 70 86 90 92 90 90 90 85 82 85 83 77 77 77 75 71 73 75 75 74 72 73 72 74 77 76 64 68
61 56 74 93 92 77 69 58 55 54 53 53 50 52 48 51 57 71 88 92 90 91 92 87 86 84 82 82 79 78 78 77 74 74 72 70 69 68 67 68 69 69 64 63
61 62 74 77 80 77 70 54 54 55 52 52 49 47 46 44 47 53 60 67 78 85 91 88 87 83 83 78 74 75 72 71 64 62 63 63 64 65 63 64 64 66 69 73
83 97 92 91 90 71 55 51 51 50 51 49 49 48 47 49 52 61 79 86 89 89 86 85 89 89 82 78 72 66 63 58 62 56 60 60 60 62 61 65 68 67 72 76
61 63 63 71 72 59 55 52 51 50 50 51 58 73 78 78 82 92 92 91 89 87 83 83 80 77 73 62 53 54 56 53 54 59 57 66 61 56 64 64 62 64 67 64
60 70 79 82 57 54 55 57 63 66 80 85 90 88 84 85 85 88 89 89 86 82 84 70 73 60 60 70 52 55 61 63 56 55 57 62 68 59 67 71 69 71 66 67
83 84 74 61 57 62 81 82 83 86 87 88 90 90 88 88 88 90 87 80 74 71 64 61 57 60 60 64 60 54 64 69 58 66 74 66 74 76 72 64 66 73 77 76
91 70 74 80 86 87 90 87 87 86 88 88 86 88 86 87 87 86 86 64 78 70 59 63 51 50 49 51 48 70 72 73 73 72 75 77 76 73 75 76 76 78 79 78
92 92 92 91 89 92 89 83 81 90 88 86 88 90 90 88 88 83 90 70 64 83 58 55 52 76 59 58 58 74 65 68 71 72 74 75 77 78 78 77 78 79 79 79
90 89 90 92 92 91 89 90 88 86 88 88 89 87 78 72 68 71 73 74 61 73 59 66 81 82 76 77 76 76 75 74 74 75 77 78 78 79 78 78 78 78 80 79
91 88 89 90 92 91 95 93 88 85 83 83 84 83 75 80 78 62 62 72 74 80 73 80 81 80 73 78 78 79 78 79 77 78 73 72 79 77 77 78 78 79 79 77
88 89 90 90 85 79 86 87 85 86 86 78 83 82 71 62 77 72 76 76 82 75 75 89 83 82 79 80 80 79 79 80 78 78 77 77 78 78 79 79 80 81 81 79
84 74 75 77 69 67 68 70 68 72 70 82 80 82 80 75 74 75 77 75 72 72 73 83 81 84 79 77 79 80 77 72 75 74 80 76 77 77 79 79 80 81 82 81
80 77 76 72 65 63 64 64 72 76 74 81 80 82 78 81 80 74 77 80 78 79 78 79 81 83 75 78 76 75 75 76 82 77 79 81 80 82 82 84 84 83 81 81

GFSNGP_sfc_rhum_168.txt.gz
RH
24 20 18 20 21 22 39 58 83 62 55 34 30 27 23 29 38 42 43 50 72 93 100 100 91 66 55 55 53 51 51 54 63 64 62 64 64 66 59 59 62 59 62 68
35 23 20 21 20 20 20 20 19 21 21 14 16 19 18 18 22 37 42 48 67 74 78 84 77 63 54 59 56 56 56 56 55 58 58 65 64 62 61 56 59 64 68 71
57 33 32 55 37 29 42 26 25 39 28 24 25 23 23 27 34 43 46 53 62 64 67 68 59 51 53 50 53 52 58 52 55 57 59 63 58 58 59 62 60 64 69 72
66 49 81 35 21 21 24 29 26 22 24 27 27 26 42 38 40 41 51 56 57 58 60 58 49 46 50 45 49 52 52 50 55 59 57 58 59 56 58 59 66 66 68 74
68 59 40 30 20 19 22 24 17 23 24 26 22 31 46 37 37 59 60 54 59 56 53 46 42 38 39 42 45 48 50 51 51 53 56 64 65 65 59 58 63 66 64 73
61 66 66 39 23 17 20 46 22 40 46 56 64 50 72 46 51 52 52 54 55 49 44 40 39 37 38 41 45 48 48 49 49 51 50 54 60 62 58 55 55 57 66 72
61 68 50 29 22 21 71 59 38 41 50 59 91 85 64 56 56 54 53 51 48 42 40 39 38 37 39 39 43 42 41 43 46 46 47 53 56 53 53 57 67 71 72 72
72 68 72 22 22 37 42 43 43 37 61 70 62 58 56 52 50 47 47 44 37 39 40 38 36 36 34 36 35 35 35 38 43 47 43 44 56 54 54 57 65 73 74 81
66 93 63 42 52 53 65 60 54 54 56 54 58 55 50 50 49 46 41 36 35 39 42 39 36 36 37 34 30 33 36 37 43 42 44 53 66 63 66 67 76 84 81 84
47 38 35 36 37 44 38 45 48 48 47 50 55 50 52 47 47 47 44 40 39 41 42 44 39 35 33 33 29 31 37 40 43 50 50 58 68 69 77 82 83 86 86 89
55 50 50 47 34 43 50 47 59 58 48 50 55 57 56 59 58 50 43 38 39 44 46 41 36 35 33 33 32 36 43 45 51 54 56 60 80 86 85 92 86 94 90 89
80 53 62 66 75 65 80 59 55 64 64 58 62 75 68 66 56 44 41 41 46 45 43 38 37 38 39 39 41 45 51 57 64 61 64 62 66 83 62 65 60 70 64 74
53 47 57 56 56 54 56 54 57 63 60 57 52 48 50 54 52 54 49 51 50 52 48 48 52 57 54 57 59 62 62 60 66 68 69 74 76 79 87 77 55 55 58 59
40 70 73 76 88 62 68 70 70 66 55 54 53 52 53 57 72 89 93 91 88 87 88 87 89 92 88 77 80 90 82 77 82 87 88 87 86 86 86 82 84 83 64 63
76 81 60 74 69 68 62 64 72 65 60 58 54 55 55 64 73 83 90 90 90 90 92 93 94 94 90 90 89 88 85 89 89 90 89 85 86 84 82 80 80 78 73 76
34 53 66 81 94 89 71 73 71 81 79 56 56 59 60 62 66 69 70 75 85 89 95 94 92 93 89 90 91 90 84 74 70 76 77 77 81 79 74 75 74 75 77 83
39 82 95 98 97 95 78 69 80 87 58 57 58 56 54 57 60 65 75 88 90 90 92 92 95 92 90 91 88 79 77 66 72 65 70 70 74 76 74 77 79 78 81 84
33 44 71 85 94 95 87 84 84 68 57 55 56 64 70 71 78 92 93 91 90 92 88 90 90 90 89 61 56 64 66 60 60 69 67 81 75 68 80 77 72 76 80 76
31 56 66 76 81 97 94 95 80 64 77 81 79 80 82 88 89 90 89 92 92 90 91 78 74 66 56 65 70 65 72 72 64 65 72 74 85 77 84 86 82 84 81 82
45 58 78 92 98 97 98 87 82 84 83 82 86 91 92 91 89 90 89 88 81 73 69 61 64 55 55 60 70 66 75 79 67 80 87 84 90 91 90 82 81 86 88 88
81 79 94 98 98 99 92 84 85 86 87 84 86 90 91 91 89 88 90 80 82 71 58 69 57 58 52 55 62 81 84 86 87 86 88 91 91 88 90 90 89 88 89 89
100 100 100 98 97 94 87 83 86 90 89 89 89 88 91 93 91 88 91 79 74 80 67 62 60 80 64 77 68 86 77 78 85 88 90 91 91 92 91 90 92 89 89 89
99 97 96 97 94 91 90 92 91 90 90 90 90 90 86 84 81 83 82 77 71 78 66 76 82 81 79 90 88 88 86 85 87 88 90 91 92 92 91 90 91 89 90 89
97 98 98 97 90 91 96 94 91 90 90 88 87 84 80 85 82 70 69 76 78 82 88 87 85 82 85 91 90 90 89 88 89 91 88 82 93 91 91 92 92 89 89 88
96 97 96 96 91 88 90 90 90 91 90 84 86 84 75 70 83 81 82 82 82 86 89 88 84 84 93 88 88 90 90 90 92 88 91 91 90 93 91 91 93 89 89 89
96 95 95 96 79 80 80 79 81 83 80 89 86 86 84 82 82 83 84 84 81 82 91 89 87 87 89 88 88 88 88 85 88 92 91 90 92 90 92 92 92 90 90 90
97 97 96 89 76 76 78 77 84 84 82 88 86 86 84 85 86 84 85 88 85 86 95 89 86 85 85 86 86 86 87 86 84 88 89 89 91 91 94 93 92 90 91 90

GFSNGP_sfc_rhum_171.txt.gz
RH
52 32 28 27 25 24 44 48 72 45 45 42 38 41 53 46 47 53 60 75 78 86 93 90 83 76 69 68 64 62 64 70 77 74 74 72 76 76 73 66 68 67 64 74
54 39 34 33 29 28 29 27 22 22 30 35 21 19 18 23 28 40 56 73 80 81 80 83 78 77 67 70 71 67 68 73 71 71 69 75 74 75 67 67 66 64 74 82
74 49 55 78 49 42 55 41 40 51 34 26 25 25 25 28 28 40 69 76 78 79 79 79 74 62 72 68 68 67 74 68 68 69 73 75 70 69 72 76 75 79 84 85
90 71 92 55 38 32 38 37 34 30 34 33 40 46 49 55 55 63 70 72 70 71 74 66 61 57 64 61 66 69 66 66 68 68 73 72 74 71 73 76 82 80 83 81
87 74 54 45 33 36 37 38 27 27 37 59 65 63 69 58 65 75 74 71 72 69 66 63 61 53 52 56 60 62 65 66 64 66 73 72 76 76 73 74 78 77 73 79
80 77 72 37 25 24 41 73 48 57 63 72 73 94 92 72 68 70 70 67 73 72 59 52 49 45 49 54 58 63 63 67 64 64 68 70 70 73 69 72 69 66 74 81
62 72 56 36 33 29 58 60 43 53 60 82 94 89 78 65 68 63 63 58 51 46 45 46 46 47 52 55 58 59 60 61 59 61 66 68 70 65 69 76 82 81 80 81
94 91 83 49 54 64 72 79 79 72 84 92 90 90 88 77 69 62 58 52 46 46 47 47 47 43 47 52 47 50 54 55 57 63 52 59 72 75 71 78 81 80 79 88
67 82 70 58 60 55 58 72 81 88 79 79 78 71 64 59 57 57 51 45 43 46 49 46 41 39 45 47 44 47 52 54 55 58 66 72 81 83 81 82 93 94 92 96
64 49 49 54 49 61 66 60 70 81 75 66 68 62 60 57 53 49 47 48 45 46 46 48 44 43 42 43 41 44 54 59 61 68 76 83 89 89 96 97 98 98 98 99
64 57 54 54 57 66 75 77 77 86 77 63 64 64 58 56 54 56 59 60 54 51 51 47 45 46 44 45 46 53 60 64 69 72 78 91 89 95 97 96 94 98 98 97
83 62 62 59 72 79 89 86 74 73 69 59 56 61 61 68 61 57 59 52 52 51 49 46 47 52 54 57 58 63 68 73 83 83 89 87 96 95 68 71 73 78 61 79
58 43 54 74 63 84 87 85 82 78 69 71 70 71 79 84 79 68 59 59 58 60 60 64 72 75 74 74 74 76 78 75 87 85 90 95 96 96 94 86 63 56 61 62
46 55 74 92 91 89 85 85 77 66 66 76 90 74 67 79 81 89 92 92 87 89 92 91 92 96 96 88 86 87 90 88 94 97 96 96 96 95 97 96 95 95 77 67
42 59 75 90 89 89 80 76 76 70 63 64 62 69 76 81 84 91 93 91 90 92 95 95 96 99 96 93 91 93 95 97 97 96 96 94 94 95 95 95 95 95 96 88
57 57 73 87 90 76 78 84 97 82 72 74 73 71 75 79 82 84 82 81 88 94 97 97 99 97 95 96 92 93 90 79 88 92 93 94 95 94 94 95 96 96 96 97
71 78 93 98 96 89 79 78 80 87 89 78 68 71 73 77 79 84 92 96 94 95 96 95 97 98 94 95 95 97 94 88 77 86 92 90 95 95 94 96 96 96 96 97
37 66 76 87 97 97 92 87 93 94 87 68 70 77 82 84 89 97 98 96 96 99 98 95 94 94 95 84 78 85 86 82 82 92 89 93 94 95 95 95 95 96 97 96
37 39 79 93 93 90 92 94 96 93 84 79 80 82 84 91 94 96 96 95 96 98 98 91 87 85 76 75 81 87 90 91 84 88 92 95 95 96 96 96 96 97 97 97
69 58 88 93 91 95 96 95 97 95 86 85 88 89 95 96 94 96 95 94 91 93 85 79 80 80 72 74 81 92 90 91 89 93 92 96 96 97 98 97 96 98 100 99
95 91 95 97 98 98 97 96 94 92 88 84 84 91 93 96 93 93 96 94 90 88 73 80 78 80 74 78 83 93 93 94 94 96 96 96 98 98 99 100 98 99 100 100
99 98 98 98 98 98 96 92 88 89 89 92 91 92 94 98 97 96 93 92 93 93 80 79 91 85 80 87 94 93 92 93 96 97 98 98 98 99 100 100 100 100 100 100
99 98 98 96 94 96 94 92 90 87 91 91 92 93 91 92 90 93 96 92 84 88 83 95 91 89 88 96 96 93 94 93 94 95 98 97 98 99 98 99 99 100 100 100
98 97 96 96 96 95 98 98 95 95 93 94 93 89 90 95 98 94 95 89 86 90 97 93 91 89 92 99 97 97 96 96 96 97 97 95 99 99 98 100 99 100 100 100
97 97 97 96 96 96 96 96 97 97 96 96 94 93 88 89 91 88 92 90 89 98 95 94 88 92 96 100 97 95 96 97 96 95 97 97 97 100 98 100 100 100 100 100
97 97 96 95 91 90 92 91 95 96 95 98 98 97 94 94 96 92 92 89 94 95 93 93 93 95 96 98 95 93 95 96 91 94 97 95 98 97 100 99 100 100 100 100
98 98 98 97 96 88 88 89 94 95 95 93 89 97 96 96 94 94 95 94 94 97 96 95 94 92 95 97 95 92 94 96 95 97 97 96 98 99 100 99 100 100 99 100